Location: Marsån
(66.4167°N, 22.2833°E)
Time: 10:06:50
(UTC+00:00)

SPOT 5 - Pass Details

Date: 24 February 2024
Orbit: 621 x 809 km, 98.1° (Epoch: 16 April)

Event Time Altitude Azimuth Distance (km) Brightness Sun altitude
Exits shadow 17:34:51 21° 112° (ESE) 1,488 3.9 -13.7°
Maximum altitude 17:37:30 42° 53° (NE) 956 3.2 -14.0°
Drops below altitude 10° 17:41:55 10° 343° (NNW) 2,159 5.7 -14.4°
Sets 17:44:19 0° 337° (NNW) 3,111 6.6 -14.7°
